| time (UTC) | temp C | wind direction | speed KPH | gust KPH | rain 1hr cm | rain 24hr cm | rain mn cm | humidity % | barometer mb |
| 20260507014505 | -17 | 0.0 | 0.0 | 0.00 | 0.00 | 0.00 | 1009.5 | ||
| 20260507013035 | -17 | 0.0 | 0.0 | 0.00 | 0.00 | 0.00 | 1009.6 | ||
| 20260507011533 | -17 | 0.0 | 0.0 | 0.00 | 0.00 | 0.00 | 1009.8 | ||
| 20260507010030 | -17 | 0.0 | 0.0 | 0.00 | 0.00 | 0.00 | 1009.9 | ||
| 20260507004522 | -17 | 0.0 | 0.0 | 0.00 | 0.00 | 0.00 | 1010.0 | ||
| 20260507003103 | -17 | 0.0 | 0.0 | 0.00 | 0.00 | 0.00 | 1010.1 | ||
| 20260507001605 | -17 | 0.0 | 0.0 | 0.00 | 0.00 | 0.00 | 1010.2 | ||
| 20260507000056 | -17 | 0.0 | 0.0 | 0.00 | 0.00 | 0.00 | 1010.3 | ||
| 20260506234540 | -17 | 0.0 | 0.0 | 0.00 | 0.00 | 0.00 | 1010.4 | ||
| 20260506233047 | -17 | 0.0 | 0.0 | 0.00 | 0.00 | 0.00 | 1010.5 | ||
| 20260506231512 | -17 | 0.0 | 0.0 | 0.00 | 0.00 | 0.00 | 1010.5 | ||
| 20260506230012 | -17 | 0.0 | 0.0 | 0.00 | 0.00 | 0.00 | 1010.5 | ||
| 20260506224549 | -17 | 0.0 | 0.0 | 0.00 | 0.00 | 0.00 | 1010.6 | ||
| 20260506223002 | -17 | 0.0 | 0.0 | 0.00 | 0.00 | 0.00 | 1010.9 | ||
| 20260506221536 | -17 | 0.0 | 0.0 | 0.00 | 0.00 | 0.00 | 1011.1 | ||
| 20260506220038 | -17 | 0.0 | 0.0 | 0.00 | 0.00 | 0.00 | 1011.2 | ||
| 20260506214532 | -17 | 0.0 | 0.0 | 0.00 | 0.00 | 0.00 | 1011.2 | ||
| 20260506213035 | -17 | 0.0 | 0.0 | 0.00 | 0.00 | 0.00 | 1011.3 | ||
| 20260506211501 | -17 | 0.0 | 0.0 | 0.00 | 0.00 | 0.00 | 1011.3 | ||
| 20260506210049 | -17 | 0.0 | 0.0 | 0.00 | 0.00 | 0.00 | 1011.3 | ||
| 20260506204533 | -17 | 0.0 | 0.0 | 0.00 | 0.00 | 0.00 | 1011.3 | ||
| 20260506203017 | -17 | 0.0 | 0.0 | 0.00 | 0.00 | 0.00 | 1011.1 | ||
| 20260506201606 | -17 | 0.0 | 0.0 | 0.00 | 0.00 | 0.00 | 1011.1 | ||
| 20260506200033 | -17 | 0.0 | 0.0 | 0.00 | 0.00 | 0.00 | 1011.1 | ||
| 20260506194605 | -17 | 0.0 | 0.0 | 0.00 | 0.00 | 0.00 | 1010.9 | ||
| 20260506193022 | -17 | 338 | 17.7 | 0.0 | 0.00 | 0.00 | 0.00 | 81 | 1011.2 |
| 20260506191558 | 13 | 30 | 19.3 | 0.0 | 0.00 | 0.00 | 0.00 | 81 | 1011.1 |
| 20260506190006 | 13 | 335 | 16.1 | 0.0 | 0.00 | 0.00 | 0.00 | 82 | 1011.1 |
| 20260506184511 | 13 | 338 | 20.9 | 0.0 | 0.00 | 0.00 | 0.00 | 82 | 1011.0 |
| 20260506183106 | 14 | 346 | 16.1 | 0.0 | 0.00 | 0.00 | 0.00 | 81 | 1011.0 |
| 20260506181530 | 14 | 339 | 20.9 | 0.0 | 0.00 | 0.00 | 0.00 | 80 | 1011.1 |
| 20260506180045 | 13 | 24 | 19.3 | 0.0 | 0.00 | 0.00 | 0.00 | 80 | 1011.3 |
| 20260506174513 | 13 | 16 | 17.7 | 0.0 | 0.00 | 0.00 | 0.00 | 81 | 1011.4 |
| 20260506173002 | 13 | 347 | 17.7 | 0.0 | 0.00 | 0.00 | 0.00 | 83 | 1011.4 |
| 20260506171550 | 13 | 336 | 24.1 | 0.0 | 0.00 | 0.00 | 0.00 | 83 | 1011.4 |
| 20260506170004 | 13 | 344 | 24.1 | 0.0 | 0.00 | 0.00 | 0.00 | 82 | 1011.6 |
| 20260506164524 | 13 | 324 | 20.9 | 0.0 | 0.00 | 0.00 | 0.00 | 81 | 1011.7 |
| 20260506163029 | 14 | 341 | 24.1 | 0.0 | 0.00 | 0.00 | 0.00 | 81 | 1011.6 |
| 20260506161513 | 13 | 344 | 27.4 | 0.0 | 0.00 | 0.00 | 0.00 | 79 | 1011.6 |
| 20260506160007 | 13 | 331 | 27.4 | 0.0 | 0.00 | 0.00 | 0.00 | 81 | 1011.7 |
| 20260506154545 | 14 | 336 | 25.7 | 0.0 | 0.00 | 0.00 | 0.00 | 81 | 1011.8 |
| 20260506153025 | 14 | 334 | 29.0 | 0.0 | 0.00 | 0.00 | 0.00 | 81 | 1011.8 |
| 20260506151505 | 14 | 9 | 20.9 | 0.0 | 0.00 | 0.00 | 0.00 | 80 | 1011.9 |
| 20260506150015 | 14 | 329 | 19.3 | 0.0 | 0.00 | 0.00 | 0.00 | 79 | 1012.0 |
| 20260506144525 | 14 | 307 | 17.7 | 0.0 | 0.00 | 0.00 | 0.00 | 80 | 1012.1 |
| 20260506143003 | 14 | 23 | 19.3 | 0.0 | 0.00 | 0.00 | 0.00 | 80 | 1012.2 |
| 20260506141550 | 14 | 335 | 19.3 | 0.0 | 0.00 | 0.00 | 0.00 | 80 | 1012.2 |
| 20260506140059 | 14 | 336 | 17.7 | 0.0 | 0.00 | 0.00 | 0.00 | 80 | 1012.3 |
| 20260506134532 | 14 | 334 | 19.3 | 0.0 | 0.00 | 0.00 | 0.00 | 80 | 1012.5 |
| 20260506133015 | 14 | 327 | 17.7 | 0.0 | 0.00 | 0.00 | 0.00 | 80 | 1012.5 |
| 20260506131559 | 14 | 334 | 17.7 | 0.0 | 0.00 | 0.00 | 0.00 | 81 | 1012.6 |
| 20260506130057 | 14 | 342 | 16.1 | 0.0 | 0.00 | 0.00 | 0.00 | 81 | 1012.7 |
| 20260506124509 | 13 | 319 | 17.7 | 0.0 | 0.00 | 0.00 | 0.00 | 83 | 1012.7 |
| 20260506123106 | 13 | 333 | 11.3 | 0.0 | 0.00 | 0.00 | 0.00 | 83 | 1012.8 |
| 20260506121527 | 13 | 30 | 9.7 | 0.0 | 0.00 | 0.00 | 0.00 | 84 | 1012.9 |
| 20260506120106 | 13 | 347 | 11.3 | 0.0 | 0.00 | 0.00 | 0.00 | 84 | 1012.9 |
| 20260506114628 | 13 | 337 | 12.9 | 0.0 | 0.00 | 0.00 | 0.00 | 85 | 1013.1 |
| 20260506113030 | 13 | 9 | 11.3 | 0.0 | 0.00 | 0.00 | 0.00 | 86 | 1013.1 |
| 20260506111533 | 13 | 341 | 12.9 | 0.0 | 0.00 | 0.00 | 0.00 | 86 | 1013.2 |
| 20260506110053 | 13 | 13 | 12.9 | 0.0 | 0.00 | 0.00 | 0.00 | 85 | 1013.1 |
| 20260506104605 | 13 | 341 | 24.1 | 0.0 | 0.00 | 0.00 | 0.00 | 84 | 1013.1 |
| 20260506103056 | 14 | 333 | 16.1 | 0.0 | 0.00 | 0.00 | 0.00 | 83 | 1013.3 |
| 20260506101605 | 13 | 344 | 14.5 | 0.0 | 0.00 | 0.00 | 0.00 | 83 | 1013.2 |
| 20260506100020 | 13 | 341 | 14.5 | 0.0 | 0.00 | 0.00 | 0.00 | 83 | 1013.1 |
| 20260506094548 | 13 | 342 | 8.0 | 0.0 | 0.00 | 0.00 | 0.00 | 84 | 1013.1 |
| 20260506093037 | 13 | 319 | 9.7 | 0.0 | 0.00 | 0.00 | 0.00 | 85 | 1013.1 |
| 20260506091549 | 13 | 348 | 6.4 | 0.0 | 0.00 | 0.00 | 0.00 | 85 | 1013.0 |
| 20260506090004 | 13 | 348 | 6.4 | 0.0 | 0.00 | 0.00 | 0.00 | 86 | 1013.1 |
| 20260506084601 | 13 | 344 | 9.7 | 0.0 | 0.00 | 0.00 | 0.00 | 87 | 1013.1 |
| 20260506083037 | 13 | 11 | 6.4 | 0.0 | 0.00 | 0.00 | 0.00 | 88 | 1013.0 |
| 20260506081531 | 14 | 93 | 3.2 | 0.0 | 0.00 | 0.00 | 0.00 | 89 | 1013.0 |
| 20260506073023 | -17 | 0.0 | 0.0 | 0.00 | 0.00 | 0.00 | 1013.1 | ||
| 20260506071554 | -17 | 0.0 | 0.0 | 0.00 | 0.00 | 0.00 | 1012.9 | ||
| 20260506061604 | -17 | 0.0 | 0.0 | 0.00 | 0.00 | 0.00 | 1012.6 | ||
| 20260506050109 | -17 | 0.0 | 0.0 | 0.00 | 0.00 | 0.00 | 1012.3 | ||
| 20260506044605 | -17 | 0.0 | 0.0 | 0.00 | 0.00 | 0.00 | 1012.4 | ||
| 20260506043052 | -17 | 0.0 | 0.0 | 0.00 | 0.00 | 0.00 | 1012.3 | ||
| 20260506041610 | -17 | 0.0 | 0.0 | 0.00 | 0.00 | 0.00 | 1012.5 | ||
| 20260506040104 | -17 | 0.0 | 0.0 | 0.00 | 0.00 | 0.00 | 1012.6 | ||
| 20260506034500 | -17 | 0.0 | 0.0 | 0.00 | 0.00 | 0.00 | 1012.7 | ||
| 20260506033049 | -17 | 0.0 | 0.0 | 0.00 | 0.00 | 0.00 | 1012.8 | ||
| 20260506031603 | -17 | 0.0 | 0.0 | 0.00 | 0.00 | 0.00 | 1012.9 | ||
| 20260506030007 | -17 | 0.0 | 0.0 | 0.00 | 0.00 | 0.00 | 1012.8 | ||
| 20260506024504 | -17 | 0.0 | 0.0 | 0.00 | 0.00 | 0.00 | 1012.9 | ||
| 20260506023020 | -17 | 0.0 | 0.0 | 0.00 | 0.00 | 0.00 | 1012.9 | ||
| 20260506021558 | -17 | 0.0 | 0.0 | 0.00 | 0.00 | 0.00 | 1013.0 | ||
| 20260506020109 | -17 | 0.0 | 0.0 | 0.00 | 0.00 | 0.00 | 1013.1 |